Time,TemperatureF,DewpointF,PressureIn,WindDirection,WindDirectionDegrees,WindSpeedMPH,WindSpeedGustMPH,Humidity,HourlyPrecipIn,Conditions,Clouds,dailyrainin,SolarRadiationWatts/m^2,SoftwareType,DateUTC
2013-05-02 00:01:00,47.9,37.9,29.94,NNW,348,0.0,0.0,68,0.00,,,0.00,0,WeatherCatV1.11B39,2013-05-02 04:01:00,
2013-05-02 00:06:00,47.8,38.1,29.94,NNW,348,0.0,0.0,69,0.00,,,0.00,0,WeatherCatV1.11B39,2013-05-02 04:06:00,
2013-05-02 00:11:00,47.6,38.3,29.94,NNW,348,0.0,0.0,70,0.00,,,0.00,0,WeatherCatV1.11B39,2013-05-02 04:11:00,
2013-05-02 00:16:00,47.4,38.8,29.95,NNW,348,0.0,0.0,72,0.00,,,0.00,0,WeatherCatV1.11B39,2013-05-02 04:16:00,
2013-05-02 00:21:00,47.2,38.6,29.95,NNW,348,0.0,0.0,72,0.00,,,0.00,0,WeatherCatV1.11B39,2013-05-02 04:21:00,
2013-05-02 00:26:00,47.0,38.4,29.95,NNW,348,0.0,0.0,72,0.00,,,0.00,0,WeatherCatV1.11B39,2013-05-02 04:26:00,
2013-05-02 00:31:00,46.9,38.4,29.94,NNW,348,0.0,0.0,72,0.00,,,0.00,0,WeatherCatV1.11B39,2013-05-02 04:31:00,
2013-05-02 00:36:00,46.7,38.2,29.94,NNW,348,0.0,0.0,72,0.00,,,0.00,0,WeatherCatV1.11B39,2013-05-02 04:36:00,
2013-05-02 00:41:00,46.5,38.0,29.94,NNW,348,0.0,0.0,72,0.00,,,0.00,0,WeatherCatV1.11B39,2013-05-02 04:41:00,
2013-05-02 00:46:00,46.3,37.8,29.95,NNW,348,0.0,0.0,72,0.00,,,0.00,0,WeatherCatV1.11B39,2013-05-02 04:46:00,
2013-05-02 00:51:00,46.1,38.3,29.94,NNW,348,0.0,0.0,74,0.00,,,0.00,0,WeatherCatV1.11B39,2013-05-02 04:51:00,
2013-05-02 00:56:00,46.0,38.5,29.95,NNW,348,0.0,0.0,75,0.00,,,0.00,0,WeatherCatV1.11B39,2013-05-02 04:56:00,
2013-05-02 01:01:00,45.8,37.6,29.94,NNW,348,0.0,0.0,73,0.00,,,0.00,0,WeatherCatV1.11B39,2013-05-02 05:01:00,
2013-05-02 01:06:00,45.6,37.5,29.94,NNW,348,0.0,0.0,73,0.00,,,0.00,0,WeatherCatV1.11B39,2013-05-02 05:06:00,
2013-05-02 01:11:00,45.5,37.7,29.94,NNW,348,0.0,0.0,74,0.00,,,0.00,0,WeatherCatV1.11B39,2013-05-02 05:11:00,
2013-05-02 01:16:00,45.3,37.8,29.94,NNW,348,0.0,0.0,75,0.00,,,0.00,0,WeatherCatV1.11B39,2013-05-02 05:16:00,
2013-05-02 01:21:00,45.0,37.6,29.94,NNW,348,0.0,0.0,75,0.00,,,0.00,0,WeatherCatV1.11B39,2013-05-02 05:21:00,
2013-05-02 01:26:00,44.9,37.8,29.94,NNW,348,0.0,0.0,76,0.00,,,0.00,0,WeatherCatV1.11B39,2013-05-02 05:26:00,
2013-05-02 01:31:00,44.5,37.4,29.94,NNW,344,0.0,0.0,76,0.00,,,0.00,0,WeatherCatV1.11B39,2013-05-02 05:31:00,
2013-05-02 01:36:00,44.4,37.3,29.94,NNW,344,0.0,0.0,76,0.00,,,0.00,0,WeatherCatV1.11B39,2013-05-02 05:36:00,
2013-05-02 01:41:00,44.2,37.5,29.94,NNW,344,0.0,0.0,77,0.00,,,0.00,0,WeatherCatV1.11B39,2013-05-02 05:41:00,
2013-05-02 01:46:00,44.1,37.4,29.94,NNW,344,0.0,0.0,77,0.00,,,0.00,0,WeatherCatV1.11B39,2013-05-02 05:46:00,
2013-05-02 01:51:00,44.0,37.6,29.94,NNW,344,0.0,0.0,78,0.00,,,0.00,0,WeatherCatV1.11B39,2013-05-02 05:51:00,
2013-05-02 01:56:00,43.8,37.4,29.94,NNW,344,0.0,0.0,78,0.00,,,0.00,0,WeatherCatV1.11B39,2013-05-02 05:56:00,
2013-05-02 02:01:00,43.7,37.3,29.94,NNW,344,0.0,0.0,78,0.00,,,0.00,0,WeatherCatV1.11B39,2013-05-02 06:01:00,
2013-05-02 02:06:00,43.5,37.4,29.94,NNW,344,0.0,0.0,79,0.00,,,0.00,0,WeatherCatV1.11B39,2013-05-02 06:06:00,
2013-05-02 02:11:00,43.3,37.2,29.93,NNW,344,0.0,0.0,79,0.00,,,0.00,0,WeatherCatV1.11B39,2013-05-02 06:11:00,
2013-05-02 02:16:00,43.2,36.8,29.93,NNW,344,0.0,0.0,78,0.00,,,0.00,0,WeatherCatV1.11B39,2013-05-02 06:16:00,
2013-05-02 02:21:00,43.0,37.3,29.94,NNW,344,0.0,0.0,80,0.00,,,0.00,0,WeatherCatV1.11B39,2013-05-02 06:21:00,
2013-05-02 02:26:00,42.9,37.2,29.94,NNW,344,0.0,0.0,80,0.00,,,0.00,0,WeatherCatV1.11B39,2013-05-02 06:26:00,
2013-05-02 02:31:00,42.7,37.0,29.94,NNW,344,0.0,0.0,80,0.00,,,0.00,0,WeatherCatV1.11B39,2013-05-02 06:31:00,
2013-05-02 02:36:00,42.6,36.9,29.93,NNW,344,0.0,0.0,80,0.00,,,0.00,0,WeatherCatV1.11B39,2013-05-02 06:36:00,
2013-05-02 02:38:00,42.6,36.9,29.93,NNW,344,0.0,0.0,80,0.00,,,0.00,0,WeatherCatV1.11B39,2013-05-02 06:38:00,
2013-05-02 02:43:00,42.4,36.7,29.93,NNW,344,0.0,0.0,80,0.00,,,0.00,0,WeatherCatV1.11B39,2013-05-02 06:43:00,
2013-05-02 02:48:00,42.3,36.9,29.93,NNW,344,0.0,0.0,81,0.00,,,0.00,0,WeatherCatV1.11B39,2013-05-02 06:48:00,
2013-05-02 02:53:00,42.2,36.8,29.93,NNW,344,0.0,0.0,81,0.00,,,0.00,0,WeatherCatV1.11B39,2013-05-02 06:53:00,
2013-05-02 02:58:00,42.0,36.6,29.93,NNW,344,0.0,0.0,81,0.00,,,0.00,0,WeatherCatV1.11B39,2013-05-02 06:58:00,
2013-05-02 03:03:00,41.9,36.5,29.93,NNW,344,0.0,0.0,81,0.00,,,0.00,0,WeatherCatV1.11B39,2013-05-02 07:03:00,
2013-05-02 03:08:00,41.8,36.7,29.93,NNW,344,0.0,0.0,82,0.00,,,0.00,0,WeatherCatV1.11B39,2013-05-02 07:08:00,
2013-05-02 03:13:00,41.6,36.8,29.93,NNW,344,0.0,0.0,83,0.00,,,0.00,0,WeatherCatV1.11B39,2013-05-02 07:13:00,
2013-05-02 03:18:00,41.5,36.4,29.93,NNW,344,0.0,0.0,82,0.00,,,0.00,0,WeatherCatV1.11B39,2013-05-02 07:18:00,
2013-05-02 03:23:00,41.3,36.5,29.93,NNW,344,0.0,0.0,83,0.00,,,0.00,0,WeatherCatV1.11B39,2013-05-02 07:23:00,
2013-05-02 03:28:00,41.2,36.4,29.92,NNW,344,0.0,0.0,83,0.00,,,0.00,0,WeatherCatV1.11B39,2013-05-02 07:28:00,
2013-05-02 03:33:00,41.1,36.6,29.92,NNW,344,0.0,0.0,84,0.00,,,0.00,0,WeatherCatV1.11B39,2013-05-02 07:33:00,
2013-05-02 03:38:00,40.9,36.4,29.92,NNW,344,0.0,0.0,84,0.00,,,0.00,0,WeatherCatV1.11B39,2013-05-02 07:38:00,
2013-05-02 03:43:00,40.8,36.3,29.93,NNW,344,0.0,0.0,84,0.00,,,0.00,0,WeatherCatV1.11B39,2013-05-02 07:43:00,
2013-05-02 03:48:00,40.7,36.2,29.92,NNW,344,0.0,0.0,84,0.00,,,0.00,0,WeatherCatV1.11B39,2013-05-02 07:48:00,
2013-05-02 03:53:00,40.5,36.4,29.93,NNW,344,0.0,0.0,85,0.00,,,0.00,0,WeatherCatV1.11B39,2013-05-02 07:53:00,
2013-05-02 03:58:00,40.3,36.2,29.93,NNW,344,0.0,0.0,85,0.00,,,0.00,0,WeatherCatV1.11B39,2013-05-02 07:58:00,
2013-05-02 04:03:00,40.2,36.1,29.93,NNW,344,0.0,0.0,85,0.00,,,0.00,0,WeatherCatV1.11B39,2013-05-02 08:03:00,
2013-05-02 04:08:00,40.1,36.3,29.93,NNW,344,0.0,0.0,86,0.00,,,0.00,0,WeatherCatV1.11B39,2013-05-02 08:08:00,
2013-05-02 04:13:00,39.9,35.8,29.93,NNW,344,0.0,0.0,85,0.00,,,0.00,0,WeatherCatV1.11B39,2013-05-02 08:13:00,
2013-05-02 04:18:00,39.8,35.7,29.93,NNW,344,0.0,0.0,85,0.00,,,0.00,0,WeatherCatV1.11B39,2013-05-02 08:18:00,
2013-05-02 04:23:00,39.7,35.6,29.93,NNW,344,0.0,0.0,85,0.00,,,0.00,0,WeatherCatV1.11B39,2013-05-02 08:23:00,
2013-05-02 04:28:00,39.6,35.5,29.93,NNW,344,0.0,0.0,85,0.00,,,0.00,0,WeatherCatV1.11B39,2013-05-02 08:28:00,
2013-05-02 04:33:00,39.5,35.7,29.93,NNW,344,0.0,0.0,86,0.00,,,0.00,0,WeatherCatV1.11B39,2013-05-02 08:33:00,
2013-05-02 04:38:00,39.4,35.6,29.93,NNW,344,0.0,0.0,86,0.00,,,0.00,0,WeatherCatV1.11B39,2013-05-02 08:38:00,
2013-05-02 04:43:00,39.3,35.5,29.92,NNW,344,0.0,0.0,86,0.00,,,0.00,0,WeatherCatV1.11B39,2013-05-02 08:43:00,
2013-05-02 04:48:00,39.2,35.4,29.93,NNW,344,0.0,0.0,86,0.00,,,0.00,0,WeatherCatV1.11B39,2013-05-02 08:48:00,
2013-05-02 04:53:00,39.1,35.3,29.93,NNW,344,0.0,0.0,86,0.00,,,0.00,0,WeatherCatV1.11B39,2013-05-02 08:53:00,
2013-05-02 04:58:00,39.0,35.5,29.93,NNW,344,0.0,0.0,87,0.00,,,0.00,0,WeatherCatV1.11B39,2013-05-02 08:58:00,
2013-05-02 05:03:00,38.9,35.7,29.92,NNW,343,0.0,1.0,88,0.00,,,0.00,0,WeatherCatV1.11B39,2013-05-02 09:03:00,
2013-05-02 05:08:00,38.8,35.6,29.92,NNW,343,0.0,0.0,88,0.00,,,0.00,0,WeatherCatV1.11B39,2013-05-02 09:08:00,
2013-05-02 05:13:00,38.8,35.6,29.93,NNW,343,0.0,0.0,88,0.00,,,0.00,0,WeatherCatV1.11B39,2013-05-02 09:13:00,
2013-05-02 05:18:00,38.7,35.5,29.93,NNW,343,0.0,0.0,88,0.00,,,0.00,0,WeatherCatV1.11B39,2013-05-02 09:18:00,
2013-05-02 05:23:00,38.6,35.4,29.93,NNW,343,0.0,0.0,88,0.00,,,0.00,0,WeatherCatV1.11B39,2013-05-02 09:23:00,
2013-05-02 05:28:00,38.5,35.3,29.93,NNW,343,0.0,0.0,88,0.00,,,0.00,0,WeatherCatV1.11B39,2013-05-02 09:28:00,
2013-05-02 05:33:00,38.4,35.2,29.93,NNW,343,0.0,0.0,88,0.00,,,0.00,0,WeatherCatV1.11B39,2013-05-02 09:33:00,
2013-05-02 05:38:00,38.3,35.3,29.94,NNW,343,0.0,0.0,89,0.00,,,0.00,0,WeatherCatV1.11B39,2013-05-02 09:38:00,
2013-05-02 05:43:00,38.3,35.6,29.93,NNW,343,0.0,0.0,90,0.00,,,0.00,5,WeatherCatV1.11B39,2013-05-02 09:43:00,
2013-05-02 05:48:00,38.3,35.6,29.94,NNW,343,0.0,0.0,90,0.00,,,0.00,7,WeatherCatV1.11B39,2013-05-02 09:48:00,
2013-05-02 05:53:00,38.3,35.6,29.94,NNW,343,0.0,0.0,90,0.00,,,0.00,9,WeatherCatV1.11B39,2013-05-02 09:53:00,
2013-05-02 05:58:00,38.3,35.6,29.94,NNW,343,0.0,0.0,90,0.00,,,0.00,11,WeatherCatV1.11B39,2013-05-02 09:58:00,
2013-05-02 06:03:00,38.2,35.5,29.94,NNW,343,0.0,0.0,90,0.00,,,0.00,14,WeatherCatV1.11B39,2013-05-02 10:03:00,
2013-05-02 06:08:00,38.3,35.6,29.94,NNW,343,0.0,0.0,90,0.00,,,0.00,16,WeatherCatV1.11B39,2013-05-02 10:08:00,
2013-05-02 06:13:00,38.3,35.6,29.94,NNW,343,0.0,0.0,90,0.00,,,0.00,18,WeatherCatV1.11B39,2013-05-02 10:13:00,
2013-05-02 06:18:00,38.3,35.6,29.94,NNW,343,0.0,0.0,90,0.00,,,0.00,19,WeatherCatV1.11B39,2013-05-02 10:18:00,
2013-05-02 06:23:00,38.3,35.9,29.94,NNW,343,0.0,0.0,91,0.00,,,0.00,23,WeatherCatV1.11B39,2013-05-02 10:23:00,
2013-05-02 06:28:00,38.4,36.0,29.94,NNW,343,0.0,0.0,91,0.00,,,0.00,23,WeatherCatV1.11B39,2013-05-02 10:28:00,
2013-05-02 06:33:00,38.5,36.1,29.94,NNW,343,0.0,0.0,91,0.00,,,0.00,26,WeatherCatV1.11B39,2013-05-02 10:33:00,
2013-05-02 06:38:00,38.6,36.5,29.95,NNW,343,0.0,0.0,92,0.00,,,0.00,26,WeatherCatV1.11B39,2013-05-02 10:38:00,
2013-05-02 06:43:00,38.7,36.6,29.95,NNW,343,0.0,0.0,92,0.00,,,0.00,28,WeatherCatV1.11B39,2013-05-02 10:43:00,
2013-05-02 06:48:00,38.9,36.8,29.95,NNW,343,0.0,0.0,92,0.00,,,0.00,30,WeatherCatV1.11B39,2013-05-02 10:48:00,
2013-05-02 06:53:00,39.1,37.2,29.95,NNW,343,0.0,0.0,93,0.00,,,0.00,32,WeatherCatV1.11B39,2013-05-02 10:53:00,
2013-05-02 06:58:00,39.3,37.4,29.95,NNW,343,0.0,0.0,93,0.00,,,0.00,33,WeatherCatV1.11B39,2013-05-02 10:58:00,
2013-05-02 07:03:00,39.5,37.9,29.95,NNW,343,0.0,0.0,94,0.00,,,0.00,44,WeatherCatV1.11B39,2013-05-02 11:03:00,
2013-05-02 07:08:00,39.8,38.2,29.95,NNW,343,0.0,0.0,94,0.00,,,0.00,44,WeatherCatV1.11B39,2013-05-02 11:08:00,
2013-05-02 07:13:00,40.3,39.0,29.95,NNW,343,0.0,0.0,95,0.00,,,0.00,39,WeatherCatV1.11B39,2013-05-02 11:13:00,
2013-05-02 07:18:00,40.9,39.8,29.95,NNW,343,0.0,0.0,96,0.00,,,0.00,60,WeatherCatV1.11B39,2013-05-02 11:18:00,
2013-05-02 07:23:00,41.3,40.2,29.95,NNW,343,0.0,0.0,96,0.00,,,0.00,47,WeatherCatV1.11B39,2013-05-02 11:23:00,
2013-05-02 07:28:00,41.9,40.8,29.95,NNW,343,0.0,0.0,96,0.00,,,0.00,53,WeatherCatV1.11B39,2013-05-02 11:28:00,
2013-05-02 07:33:00,42.4,41.6,29.95,NNW,343,0.0,0.0,97,0.00,,,0.00,44,WeatherCatV1.11B39,2013-05-02 11:33:00,
2013-05-02 07:38:00,43.1,42.3,29.95,NNW,343,0.0,0.0,97,0.00,,,0.00,47,WeatherCatV1.11B39,2013-05-02 11:38:00,
2013-05-02 07:43:00,43.6,42.8,29.95,NNW,343,0.0,0.0,97,0.00,,,0.00,47,WeatherCatV1.11B39,2013-05-02 11:43:00,
2013-05-02 07:48:00,44.0,42.9,29.96,NNW,343,0.0,0.0,96,0.00,,,0.00,42,WeatherCatV1.11B39,2013-05-02 11:48:00,
2013-05-02 07:53:00,44.6,43.3,29.95,NNW,343,0.0,0.0,95,0.00,,,0.00,53,WeatherCatV1.11B39,2013-05-02 11:53:00,
2013-05-02 07:58:00,45.1,43.2,29.95,NNW,343,0.0,0.0,93,0.00,,,0.00,67,WeatherCatV1.11B39,2013-05-02 11:58:00,
2013-05-02 08:03:00,45.5,43.3,29.95,NNW,343,0.0,0.0,92,0.00,,,0.00,81,WeatherCatV1.11B39,2013-05-02 12:03:00,
2013-05-02 08:08:00,46.0,43.5,29.95,NNW,343,0.0,0.0,91,0.00,,,0.00,90,WeatherCatV1.11B39,2013-05-02 12:08:00,
2013-05-02 08:13:00,46.4,43.6,29.95,NNW,343,0.0,0.0,90,0.00,,,0.00,98,WeatherCatV1.11B39,2013-05-02 12:13:00,
2013-05-02 08:18:00,46.9,43.2,29.95,NNW,343,0.0,0.0,87,0.00,,,0.00,93,WeatherCatV1.11B39,2013-05-02 12:18:00,
2013-05-02 08:23:00,47.3,42.7,29.95,NNW,343,0.0,0.0,84,0.00,,,0.00,83,WeatherCatV1.11B39,2013-05-02 12:23:00,
2013-05-02 08:28:00,47.7,42.8,29.95,NNW,343,0.0,0.0,83,0.00,,,0.00,83,WeatherCatV1.11B39,2013-05-02 12:28:00,
2013-05-02 08:33:00,48.2,43.0,29.95,NNW,343,0.0,0.0,82,0.00,,,0.00,76,WeatherCatV1.11B39,2013-05-02 12:33:00,
2013-05-02 08:38:00,48.6,42.4,29.95,NNW,343,0.0,0.0,79,0.00,,,0.00,70,WeatherCatV1.11B39,2013-05-02 12:38:00,
2013-05-02 08:43:00,49.1,42.9,29.95,NNW,343,0.0,0.0,79,0.00,,,0.00,83,WeatherCatV1.11B39,2013-05-02 12:43:00,
2013-05-02 08:48:00,49.5,42.3,29.95,NNW,343,0.0,0.0,76,0.00,,,0.00,90,WeatherCatV1.11B39,2013-05-02 12:48:00,
2013-05-02 08:53:00,50.1,40.7,29.95,NNW,343,0.0,0.0,70,0.00,,,0.00,100,WeatherCatV1.11B39,2013-05-02 12:53:00,
2013-05-02 08:58:00,50.7,40.1,29.94,NNW,343,0.0,0.0,67,0.00,,,0.00,109,WeatherCatV1.11B39,2013-05-02 12:58:00,
2013-05-02 09:03:00,51.4,40.8,29.94,NNW,343,0.0,0.0,67,0.00,,,0.00,74,WeatherCatV1.11B39,2013-05-02 13:03:00,
2013-05-02 09:08:00,52.2,40.0,29.94,NNW,343,0.0,0.0,63,0.00,,,0.00,79,WeatherCatV1.11B39,2013-05-02 13:08:00,
2013-05-02 09:13:00,53.0,40.7,29.94,NNW,343,0.0,0.0,63,0.00,,,0.00,98,WeatherCatV1.11B39,2013-05-02 13:13:00,
2013-05-02 09:18:00,53.7,41.0,29.94,NNW,343,0.0,0.0,62,0.00,,,0.00,547,WeatherCatV1.11B39,2013-05-02 13:18:00,
2013-05-02 09:23:00,54.4,42.1,29.94,NNW,343,0.0,0.0,63,0.00,,,0.00,571,WeatherCatV1.11B39,2013-05-02 13:23:00,
2013-05-02 09:28:00,55.4,43.0,29.94,NNW,343,0.0,0.0,63,0.00,,,0.00,209,WeatherCatV1.11B39,2013-05-02 13:28:00,
2013-05-02 09:33:00,56.4,41.4,29.94,NNW,343,0.0,1.0,57,0.00,,,0.00,482,WeatherCatV1.11B39,2013-05-02 13:33:00,
2013-05-02 09:38:00,57.4,42.7,29.94,NNW,343,0.0,1.0,58,0.00,,,0.00,615,WeatherCatV1.11B39,2013-05-02 13:38:00,
2013-05-02 09:43:00,58.6,43.4,29.94,NNW,342,0.0,0.0,57,0.00,,,0.00,571,WeatherCatV1.11B39,2013-05-02 13:43:00,
2013-05-02 09:46:00,59.2,42.1,29.94,NNW,342,0.0,0.0,53,0.00,,,0.00,466,WeatherCatV1.11B39,2013-05-02 13:46:00,
2013-05-02 09:51:00,60.4,45.1,29.94,NNW,342,0.0,0.0,57,0.00,,,0.00,443,WeatherCatV1.11B39,2013-05-02 13:51:00,
2013-05-02 09:52:00,60.6,45.3,29.94,NNW,342,0.0,1.0,57,0.00,,,0.00,443,WeatherCatV1.11B39,2013-05-02 13:52:00,
2013-05-02 09:57:00,61.4,44.6,29.94,NNW,342,0.0,0.0,54,0.00,,,0.00,109,WeatherCatV1.11B39,2013-05-02 13:57:00,
2013-05-02 10:02:00,62.2,46.8,29.93,NNW,342,1.0,1.0,57,0.00,,,0.00,297,WeatherCatV1.11B39,2013-05-02 14:02:00,
2013-05-02 10:07:00,62.9,47.0,29.93,NNW,336,2.0,3.0,56,0.00,,,0.00,497,WeatherCatV1.11B39,2013-05-02 14:07:00,
2013-05-02 10:12:00,63.4,45.5,29.93,NNW,334,0.0,1.0,52,0.00,,,0.00,598,WeatherCatV1.11B39,2013-05-02 14:12:00,
2013-05-02 10:17:00,64.0,45.5,29.93,NNW,334,0.0,0.0,51,0.00,,,0.00,288,WeatherCatV1.11B39,2013-05-02 14:17:00,
2013-05-02 10:22:00,64.5,44.4,29.93,North,5,0.0,0.0,48,0.00,,,0.00,234,WeatherCatV1.11B39,2013-05-02 14:22:00,
2013-05-02 10:27:00,65.1,44.4,29.93,NW,321,0.0,0.0,47,0.00,,,0.00,234,WeatherCatV1.11B39,2013-05-02 14:27:00,
2013-05-02 10:32:00,65.4,42.9,29.93,NW,321,0.0,0.0,44,0.00,,,0.00,209,WeatherCatV1.11B39,2013-05-02 14:32:00,
2013-05-02 10:37:00,65.8,44.4,29.93,NW,321,0.0,0.0,46,0.00,,,0.00,167,WeatherCatV1.11B39,2013-05-02 14:37:00,
2013-05-02 10:42:00,66.1,44.1,29.93,NW,321,0.0,0.0,45,0.00,,,0.00,179,WeatherCatV1.11B39,2013-05-02 14:42:00,
2013-05-02 10:47:00,66.3,49.1,29.93,North,355,0.0,3.0,54,0.00,,,0.00,214,WeatherCatV1.11B39,2013-05-02 14:47:00,
2013-05-02 10:53:00,66.3,48.1,29.93,North,355,0.0,0.0,52,0.00,,,0.00,220,WeatherCatV1.11B39,2013-05-02 14:53:00,
2013-05-02 10:58:00,66.4,46.7,29.93,North,355,0.0,0.0,49,0.00,,,0.00,236,WeatherCatV1.11B39,2013-05-02 14:58:00,
2013-05-02 11:03:00,66.6,47.4,29.93,North,355,0.0,1.0,50,0.00,,,0.00,290,WeatherCatV1.11B39,2013-05-02 15:03:00,
2013-05-02 11:08:00,67.1,46.2,29.93,North,355,0.0,0.0,47,0.00,,,0.00,237,WeatherCatV1.11B39,2013-05-02 15:08:00,
2013-05-02 11:13:00,67.3,45.2,29.93,North,355,0.0,0.0,45,0.00,,,0.00,431,WeatherCatV1.11B39,2013-05-02 15:13:00,
2013-05-02 11:18:00,67.6,46.1,29.93,North,355,0.0,0.0,46,0.00,,,0.00,276,WeatherCatV1.11B39,2013-05-02 15:18:00,
2013-05-02 11:23:00,68.2,44.2,29.93,North,355,0.0,0.0,42,0.00,,,0.00,213,WeatherCatV1.11B39,2013-05-02 15:23:00,
2013-05-02 11:28:00,68.6,42.6,29.93,North,355,0.0,0.0,39,0.00,,,0.00,221,WeatherCatV1.11B39,2013-05-02 15:28:00,
2013-05-02 11:33:00,69.1,42.4,29.93,North,355,0.0,0.0,38,0.00,,,0.00,225,WeatherCatV1.11B39,2013-05-02 15:33:00,
2013-05-02 11:38:00,69.6,41.5,29.93,North,355,0.0,1.0,36,0.00,,,0.00,221,WeatherCatV1.11B39,2013-05-02 15:38:00,
2013-05-02 11:43:00,69.9,42.4,29.92,North,355,0.0,1.0,37,0.00,,,0.00,176,WeatherCatV1.11B39,2013-05-02 15:43:00,
2013-05-02 11:48:00,70.1,43.3,29.92,North,355,0.0,0.0,38,0.00,,,0.00,155,WeatherCatV1.11B39,2013-05-02 15:48:00,
2013-05-02 11:53:00,70.3,44.2,29.92,North,355,1.0,1.0,39,0.00,,,0.00,169,WeatherCatV1.11B39,2013-05-02 15:53:00,
2013-05-02 11:58:00,70.6,43.7,29.91,North,355,0.0,1.0,38,0.00,,,0.00,181,WeatherCatV1.11B39,2013-05-02 15:58:00,
2013-05-02 12:03:00,70.9,44.0,29.91,NNE,19,0.0,1.0,38,0.00,,,0.00,162,WeatherCatV1.11B39,2013-05-02 16:03:00,
2013-05-02 12:08:00,71.3,44.4,29.91,ESE,117,1.0,1.0,38,0.00,,,0.00,190,WeatherCatV1.11B39,2013-05-02 16:08:00,
2013-05-02 12:13:00,71.8,44.8,29.91,South,179,2.0,2.0,38,0.00,,,0.00,192,WeatherCatV1.11B39,2013-05-02 16:13:00,
2013-05-02 12:18:00,72.3,44.6,29.91,South,180,0.0,1.0,37,0.00,,,0.00,225,WeatherCatV1.11B39,2013-05-02 16:18:00,
2013-05-02 12:23:00,72.8,45.0,29.91,SSW,196,0.0,0.0,37,0.00,,,0.00,265,WeatherCatV1.11B39,2013-05-02 16:23:00,
2013-05-02 12:28:00,73.4,44.1,29.91,South,186,0.0,2.0,35,0.00,,,0.00,360,WeatherCatV1.11B39,2013-05-02 16:28:00,
2013-05-02 12:33:00,74.0,44.6,29.91,SSE,163,0.0,1.0,35,0.00,,,0.00,309,WeatherCatV1.11B39,2013-05-02 16:33:00,
2013-05-02 12:38:00,74.6,44.4,29.91,South,169,0.0,1.0,34,0.00,,,0.00,237,WeatherCatV1.11B39,2013-05-02 16:38:00,
2013-05-02 12:43:00,74.9,43.8,29.91,South,180,0.0,2.0,33,0.00,,,0.00,172,WeatherCatV1.11B39,2013-05-02 16:43:00,
2013-05-02 12:48:00,75.0,43.9,29.91,South,180,0.0,0.0,33,0.00,,,0.00,169,WeatherCatV1.11B39,2013-05-02 16:48:00,
2013-05-02 12:53:00,75.1,45.6,29.91,South,180,0.0,1.0,35,0.00,,,0.00,162,WeatherCatV1.11B39,2013-05-02 16:53:00,
2013-05-02 12:58:00,75.0,45.5,29.91,South,179,0.0,0.0,35,0.00,,,0.00,178,WeatherCatV1.11B39,2013-05-02 16:58:00,
2013-05-02 13:03:00,74.8,44.5,29.91,South,180,0.0,1.0,34,0.00,,,0.00,251,WeatherCatV1.11B39,2013-05-02 17:03:00,
2013-05-02 13:08:00,74.7,46.0,29.91,South,179,0.0,0.0,36,0.00,,,0.00,181,WeatherCatV1.11B39,2013-05-02 17:08:00,
2013-05-02 13:13:00,74.6,45.1,29.91,East,96,0.0,1.0,35,0.00,,,0.00,156,WeatherCatV1.11B39,2013-05-02 17:13:00,
2013-05-02 13:18:00,74.2,44.0,29.91,WNW,294,0.0,1.0,34,0.00,,,0.00,139,WeatherCatV1.11B39,2013-05-02 17:18:00,
2013-05-02 13:23:00,73.8,44.4,29.91,NE,35,0.0,1.0,35,0.00,,,0.00,139,WeatherCatV1.11B39,2013-05-02 17:23:00,
2013-05-02 13:28:00,73.4,44.1,29.91,NNE,32,0.0,4.0,35,0.00,,,0.00,142,WeatherCatV1.11B39,2013-05-02 17:28:00,
2013-05-02 13:33:00,72.9,43.6,29.91,NE,35,0.0,1.0,35,0.00,,,0.00,132,WeatherCatV1.11B39,2013-05-02 17:33:00,
2013-05-02 13:38:00,72.5,44.0,29.92,NE,35,1.0,2.0,36,0.00,,,0.00,107,WeatherCatV1.11B39,2013-05-02 17:38:00,
2013-05-02 13:43:00,71.9,42.8,29.92,ENE,63,0.0,3.0,35,0.00,,,0.00,95,WeatherCatV1.11B39,2013-05-02 17:43:00,
2013-05-02 13:48:00,71.4,43.8,29.92,NE,39,0.0,3.0,37,0.00,,,0.00,93,WeatherCatV1.11B39,2013-05-02 17:48:00,
2013-05-02 13:53:00,71.0,43.4,29.92,NE,36,0.0,1.0,37,0.00,,,0.00,105,WeatherCatV1.11B39,2013-05-02 17:53:00,
2013-05-02 13:58:00,70.7,43.1,29.92,WNW,297,0.0,2.0,37,0.00,,,0.00,102,WeatherCatV1.11B39,2013-05-02 17:58:00,
2013-05-02 14:03:00,70.4,43.6,29.93,ENE,57,0.0,2.0,38,0.00,,,0.00,95,WeatherCatV1.11B39,2013-05-02 18:03:00,
2013-05-02 14:08:00,70.2,43.4,29.94,ENE,57,0.0,1.0,38,0.00,,,0.00,104,WeatherCatV1.11B39,2013-05-02 18:08:00,
2013-05-02 14:13:00,69.9,43.8,29.94,NNW,329,0.0,0.0,39,0.00,,,0.00,111,WeatherCatV1.11B39,2013-05-02 18:13:00,
2013-05-02 14:18:00,69.7,43.6,29.94,NE,40,0.0,1.0,39,0.00,,,0.00,91,WeatherCatV1.11B39,2013-05-02 18:18:00,
2013-05-02 14:23:00,69.5,44.1,29.94,NE,34,0.0,1.0,40,0.00,,,0.00,77,WeatherCatV1.11B39,2013-05-02 18:23:00,
2013-05-02 14:28:00,69.3,44.6,29.94,NE,34,1.0,1.0,41,0.00,,,0.00,88,WeatherCatV1.11B39,2013-05-02 18:28:00,
2013-05-02 14:33:00,69.1,45.0,29.94,NE,34,0.0,1.0,42,0.00,,,0.00,125,WeatherCatV1.11B39,2013-05-02 18:33:00,
2013-05-02 14:38:00,69.0,49.0,29.94,SSE,167,0.0,2.0,49,0.00,,,0.00,207,WeatherCatV1.11B39,2013-05-02 18:38:00,
2013-05-02 14:43:00,69.0,49.0,29.94,South,175,0.0,2.0,49,0.00,,,0.00,274,WeatherCatV1.11B39,2013-05-02 18:43:00,
2013-05-02 14:48:00,68.9,48.4,29.94,SE,145,0.0,1.0,48,0.00,,,0.00,190,WeatherCatV1.11B39,2013-05-02 18:48:00,
2013-05-02 14:53:00,68.6,48.7,29.95,South,188,0.0,1.0,49,0.00,,,0.00,153,WeatherCatV1.11B39,2013-05-02 18:53:00,
2013-05-02 14:58:00,68.3,47.8,29.95,South,188,0.0,0.0,48,0.00,,,0.00,149,WeatherCatV1.11B39,2013-05-02 18:58:00,
2013-05-02 15:03:00,68.1,48.7,29.95,South,188,0.0,1.0,50,0.00,,,0.00,156,WeatherCatV1.11B39,2013-05-02 19:03:00,
2013-05-02 15:08:00,67.8,47.9,29.95,South,179,1.0,2.0,49,0.00,,,0.00,137,WeatherCatV1.11B39,2013-05-02 19:08:00,
2013-05-02 15:13:00,67.4,47.6,29.95,SSE,165,0.0,1.0,49,0.00,,,0.00,127,WeatherCatV1.11B39,2013-05-02 19:13:00,
2013-05-02 15:18:00,66.8,46.5,29.96,South,184,1.0,2.0,48,0.00,,,0.00,118,WeatherCatV1.11B39,2013-05-02 19:18:00,
2013-05-02 15:23:00,66.3,46.0,29.96,South,178,1.0,3.0,48,0.00,,,0.00,130,WeatherCatV1.11B39,2013-05-02 19:23:00,
2013-05-02 15:28:00,65.7,46.0,29.96,South,176,0.0,2.0,49,0.00,,,0.00,134,WeatherCatV1.11B39,2013-05-02 19:28:00,
2013-05-02 15:33:00,65.2,46.6,29.96,South,176,0.0,1.0,51,0.00,,,0.00,186,WeatherCatV1.11B39,2013-05-02 19:33:00,
2013-05-02 15:38:00,64.9,46.3,29.96,South,179,0.0,1.0,51,0.00,,,0.00,253,WeatherCatV1.11B39,2013-05-02 19:38:00,
2013-05-02 15:43:00,64.7,45.6,29.96,SSE,157,1.0,1.0,50,0.00,,,0.00,281,WeatherCatV1.11B39,2013-05-02 19:43:00,
2013-05-02 15:48:00,64.5,45.4,29.96,South,175,1.0,2.0,50,0.00,,,0.00,186,WeatherCatV1.11B39,2013-05-02 19:48:00,
2013-05-02 15:53:00,64.4,45.3,29.97,South,175,0.0,1.0,50,0.00,,,0.00,171,WeatherCatV1.11B39,2013-05-02 19:53:00,
2013-05-02 15:58:00,64.4,46.4,29.97,South,175,0.0,0.0,52,0.00,,,0.00,151,WeatherCatV1.11B39,2013-05-02 19:58:00,
2013-05-02 16:03:00,64.1,45.1,29.97,South,174,1.0,2.0,50,0.00,,,0.00,151,WeatherCatV1.11B39,2013-05-02 20:03:00,
2013-05-02 16:08:00,63.7,44.7,29.97,South,174,1.0,3.0,50,0.00,,,0.00,158,WeatherCatV1.11B39,2013-05-02 20:08:00,
2013-05-02 16:13:00,63.3,44.3,29.97,SSW,207,1.0,3.0,50,0.00,,,0.00,202,WeatherCatV1.11B39,2013-05-02 20:13:00,
2013-05-02 16:18:00,62.9,44.0,29.98,South,172,0.0,2.0,50,0.00,,,0.00,172,WeatherCatV1.11B39,2013-05-02 20:18:00,
2013-05-02 16:23:00,62.6,44.2,29.97,South,183,0.0,2.0,51,0.00,,,0.00,183,WeatherCatV1.11B39,2013-05-02 20:23:00,
2013-05-02 16:28:00,62.3,43.9,29.97,South,170,0.0,2.0,51,0.00,,,0.00,221,WeatherCatV1.11B39,2013-05-02 20:28:00,
2013-05-02 16:33:00,62.1,44.8,29.98,SSE,163,1.0,1.0,53,0.00,,,0.00,139,WeatherCatV1.11B39,2013-05-02 20:33:00,
2013-05-02 16:38:00,61.7,43.9,29.98,SSE,159,0.0,1.0,52,0.00,,,0.00,95,WeatherCatV1.11B39,2013-05-02 20:38:00,
2013-05-02 16:43:00,61.3,44.0,29.97,SSE,160,0.0,1.0,53,0.00,,,0.00,83,WeatherCatV1.11B39,2013-05-02 20:43:00,
2013-05-02 16:48:00,61.0,44.7,29.98,SSE,160,0.0,1.0,55,0.00,,,0.00,93,WeatherCatV1.11B39,2013-05-02 20:48:00,
2013-05-02 16:53:00,60.6,43.9,29.97,South,180,0.0,1.0,54,0.00,,,0.00,81,WeatherCatV1.11B39,2013-05-02 20:53:00,
2013-05-02 16:58:00,60.3,44.1,29.98,South,178,0.0,1.0,55,0.00,,,0.00,81,WeatherCatV1.11B39,2013-05-02 20:58:00,
2013-05-02 17:03:00,60.1,44.8,29.98,South,178,0.0,0.0,57,0.00,,,0.00,72,WeatherCatV1.11B39,2013-05-02 21:03:00,
2013-05-02 17:08:00,60.0,44.3,29.98,South,178,0.0,0.0,56,0.00,,,0.00,60,WeatherCatV1.11B39,2013-05-02 21:08:00,
2013-05-02 17:13:00,59.8,43.6,29.98,South,178,0.0,1.0,55,0.00,,,0.00,65,WeatherCatV1.11B39,2013-05-02 21:13:00,
2013-05-02 17:18:00,59.5,42.8,29.98,South,178,0.0,1.0,54,0.00,,,0.00,65,WeatherCatV1.11B39,2013-05-02 21:18:00,
2013-05-02 17:23:00,59.1,42.0,29.98,South,170,0.0,0.0,53,0.00,,,0.00,69,WeatherCatV1.11B39,2013-05-02 21:23:00,
2013-05-02 17:28:00,59.0,41.9,29.98,South,170,0.0,0.0,53,0.00,,,0.00,67,WeatherCatV1.11B39,2013-05-02 21:28:00,
2013-05-02 17:33:00,58.9,41.8,29.98,SSE,167,0.0,1.0,53,0.00,,,0.00,65,WeatherCatV1.11B39,2013-05-02 21:33:00,
2013-05-02 17:38:00,58.6,41.0,29.98,South,178,0.0,1.0,52,0.00,,,0.00,74,WeatherCatV1.11B39,2013-05-02 21:38:00,
2013-05-02 17:43:00,58.3,41.2,29.98,South,178,0.0,1.0,53,0.00,,,0.00,62,WeatherCatV1.11B39,2013-05-02 21:43:00,
2013-05-02 17:48:00,58.1,41.5,29.98,South,178,0.0,1.0,54,0.00,,,0.00,40,WeatherCatV1.11B39,2013-05-02 21:48:00,
2013-05-02 17:53:00,57.8,39.8,29.98,South,182,0.0,1.0,51,0.00,,,0.00,32,WeatherCatV1.11B39,2013-05-02 21:53:00,
2013-05-02 17:58:00,57.6,39.1,29.98,South,175,0.0,3.0,50,0.00,,,0.00,33,WeatherCatV1.11B39,2013-05-02 21:58:00,
2013-05-02 18:03:00,57.2,37.7,29.98,SSE,164,0.0,1.0,48,0.00,,,0.00,30,WeatherCatV1.11B39,2013-05-02 22:03:00,
2013-05-02 18:08:00,56.9,37.4,29.98,SSE,164,0.0,0.0,48,0.00,,,0.00,23,WeatherCatV1.11B39,2013-05-02 22:08:00,
2013-05-02 18:13:00,56.6,37.1,29.98,SSE,164,0.0,0.0,48,0.00,,,0.00,19,WeatherCatV1.11B39,2013-05-02 22:13:00,
2013-05-02 18:17:00,56.4,36.4,29.98,SSE,164,0.0,0.0,47,0.00,,,0.00,16,WeatherCatV1.11B39,2013-05-02 22:17:00,
2013-05-02 18:22:00,56.2,36.2,29.98,SSE,164,0.0,0.0,47,0.00,,,0.00,16,WeatherCatV1.11B39,2013-05-02 22:22:00,
2013-05-02 18:27:00,56.0,35.5,29.98,SSE,164,0.0,0.0,46,0.00,,,0.00,19,WeatherCatV1.11B39,2013-05-02 22:27:00,
2013-05-02 18:32:00,55.9,36.0,29.98,SSE,164,0.0,0.0,47,0.00,,,0.00,19,WeatherCatV1.11B39,2013-05-02 22:32:00,
2013-05-02 18:37:00,55.6,35.7,29.99,SSE,164,0.0,0.0,47,0.00,,,0.00,18,WeatherCatV1.11B39,2013-05-02 22:37:00,
2013-05-02 18:42:00,55.4,35.5,29.98,SSE,164,0.0,0.0,47,0.00,,,0.00,12,WeatherCatV1.11B39,2013-05-02 22:42:00,
2013-05-02 18:47:00,55.2,35.9,29.98,SSE,164,0.0,0.0,48,0.00,,,0.00,14,WeatherCatV1.11B39,2013-05-02 22:47:00,
2013-05-02 18:52:00,55.0,36.7,29.98,SSE,164,0.0,0.0,50,0.00,,,0.00,12,WeatherCatV1.11B39,2013-05-02 22:52:00,
2013-05-02 18:57:00,54.9,36.6,29.99,SSE,164,0.0,0.0,50,0.00,,,0.00,11,WeatherCatV1.11B39,2013-05-02 22:57:00,
2013-05-02 19:02:00,54.6,36.8,29.98,SSE,164,0.0,0.0,51,0.00,,,0.00,11,WeatherCatV1.11B39,2013-05-02 23:02:00,
2013-05-02 19:07:00,54.5,36.2,29.98,SSE,164,0.0,0.0,50,0.00,,,0.00,9,WeatherCatV1.11B39,2013-05-02 23:07:00,
2013-05-02 19:12:00,54.3,34.5,29.99,SSE,163,0.0,1.0,47,0.00,,,0.00,9,WeatherCatV1.11B39,2013-05-02 23:12:00,
2013-05-02 19:17:00,54.1,35.4,29.99,SSE,163,0.0,0.0,49,0.00,,,0.00,11,WeatherCatV1.11B39,2013-05-02 23:17:00,
2013-05-02 19:22:00,53.9,33.1,29.99,SSE,164,0.0,2.0,45,0.00,,,0.00,7,WeatherCatV1.11B39,2013-05-02 23:22:00,
2013-05-02 19:27:00,53.8,33.5,29.99,SSE,164,0.0,1.0,46,0.00,,,0.00,5,WeatherCatV1.11B39,2013-05-02 23:27:00,
2013-05-02 19:32:00,53.6,32.8,30.00,SSE,164,0.0,0.0,45,0.00,,,0.00,0,WeatherCatV1.11B39,2013-05-02 23:32:00,
2013-05-02 19:37:00,53.5,32.7,30.00,South,172,1.0,2.0,45,0.00,,,0.00,0,WeatherCatV1.11B39,2013-05-02 23:37:00,
2013-05-02 19:42:00,53.3,32.0,30.00,South,172,0.0,1.0,44,0.00,,,0.00,0,WeatherCatV1.11B39,2013-05-02 23:42:00,
2013-05-02 19:47:00,53.2,32.4,30.00,South,172,0.0,0.0,45,0.00,,,0.00,0,WeatherCatV1.11B39,2013-05-02 23:47:00,
2013-05-02 19:52:00,53.0,32.2,30.00,South,172,0.0,0.0,45,0.00,,,0.00,0,WeatherCatV1.11B39,2013-05-02 23:52:00,
2013-05-02 19:57:00,52.9,32.7,30.00,South,172,0.0,0.0,46,0.00,,,0.00,0,WeatherCatV1.11B39,2013-05-02 23:57:00,
2013-05-02 20:02:00,52.7,33.0,30.01,South,172,0.0,0.0,47,0.00,,,0.00,0,WeatherCatV1.11B39,2013-05-03 00:02:00,
2013-05-02 20:07:00,52.6,33.5,30.01,South,172,0.0,0.0,48,0.00,,,0.00,0,WeatherCatV1.11B39,2013-05-03 00:07:00,
2013-05-02 20:12:00,52.3,34.2,30.01,South,172,0.0,0.0,50,0.00,,,0.00,0,WeatherCatV1.11B39,2013-05-03 00:12:00,
2013-05-02 20:17:00,52.0,33.9,30.01,South,172,0.0,0.0,50,0.00,,,0.00,0,WeatherCatV1.11B39,2013-05-03 00:17:00,
2013-05-02 20:22:00,51.6,34.6,30.01,South,172,0.0,1.0,52,0.00,,,0.00,0,WeatherCatV1.11B39,2013-05-03 00:22:00,
2013-05-02 20:27:00,51.3,35.2,30.02,South,172,0.0,1.0,54,0.00,,,0.00,0,WeatherCatV1.11B39,2013-05-03 00:27:00,
2013-05-02 20:32:00,50.8,35.2,30.02,South,172,0.0,1.0,55,0.00,,,0.00,0,WeatherCatV1.11B39,2013-05-03 00:32:00,
2013-05-02 20:37:00,50.4,34.4,30.02,South,172,0.0,0.0,54,0.00,,,0.00,0,WeatherCatV1.11B39,2013-05-03 00:37:00,
2013-05-02 20:42:00,50.0,34.5,30.02,South,172,0.0,0.0,55,0.00,,,0.00,0,WeatherCatV1.11B39,2013-05-03 00:42:00,
2013-05-02 20:47:00,49.7,35.5,30.02,South,172,0.0,0.0,58,0.00,,,0.00,0,WeatherCatV1.11B39,2013-05-03 00:47:00,
2013-05-02 20:52:00,49.3,35.6,30.02,South,172,0.0,0.0,59,0.00,,,0.00,0,WeatherCatV1.11B39,2013-05-03 00:52:00,
2013-05-02 20:57:00,49.0,34.9,30.02,South,172,0.0,0.0,58,0.00,,,0.00,0,WeatherCatV1.11B39,2013-05-03 00:57:00,
2013-05-02 21:02:00,48.6,34.9,30.02,South,172,0.0,0.0,59,0.00,,,0.00,0,WeatherCatV1.11B39,2013-05-03 01:02:00,
2013-05-02 21:07:00,48.2,35.0,30.02,South,172,0.0,0.0,60,0.00,,,0.00,0,WeatherCatV1.11B39,2013-05-03 01:07:00,
2013-05-02 21:12:00,47.8,34.6,30.03,South,172,0.0,0.0,60,0.00,,,0.00,0,WeatherCatV1.11B39,2013-05-03 01:12:00,
2013-05-02 21:17:00,47.5,34.7,30.02,South,172,0.0,0.0,61,0.00,,,0.00,0,WeatherCatV1.11B39,2013-05-03 01:17:00,
2013-05-02 21:22:00,47.1,34.8,30.02,South,172,0.0,0.0,62,0.00,,,0.00,0,WeatherCatV1.11B39,2013-05-03 01:22:00,
2013-05-02 21:27:00,46.8,34.1,30.03,South,172,0.0,0.0,61,0.00,,,0.00,0,WeatherCatV1.11B39,2013-05-03 01:27:00,
2013-05-02 21:32:00,46.5,34.6,30.03,South,172,0.0,0.0,63,0.00,,,0.00,0,WeatherCatV1.11B39,2013-05-03 01:32:00,
2013-05-02 21:37:00,46.2,34.7,30.02,South,172,0.0,0.0,64,0.00,,,0.00,0,WeatherCatV1.11B39,2013-05-03 01:37:00,
2013-05-02 21:42:00,45.9,35.2,30.03,South,172,0.0,0.0,66,0.00,,,0.00,0,WeatherCatV1.11B39,2013-05-03 01:42:00,
2013-05-02 21:47:00,45.6,34.5,30.02,South,172,0.0,1.0,65,0.00,,,0.00,0,WeatherCatV1.11B39,2013-05-03 01:47:00,
2013-05-02 21:52:00,45.2,34.9,30.03,South,172,0.0,0.0,67,0.00,,,0.00,0,WeatherCatV1.11B39,2013-05-03 01:52:00,
2013-05-02 21:57:00,44.9,34.6,30.03,South,172,0.0,0.0,67,0.00,,,0.00,0,WeatherCatV1.11B39,2013-05-03 01:57:00,
2013-05-02 22:02:00,44.6,34.3,30.03,South,172,0.0,0.0,67,0.00,,,0.00,0,WeatherCatV1.11B39,2013-05-03 02:02:00,
2013-05-02 22:07:00,44.3,34.8,30.03,South,172,0.0,0.0,69,0.00,,,0.00,0,WeatherCatV1.11B39,2013-05-03 02:07:00,
2013-05-02 22:12:00,44.1,34.6,30.03,South,172,0.0,0.0,69,0.00,,,0.00,0,WeatherCatV1.11B39,2013-05-03 02:12:00,
2013-05-02 22:17:00,43.8,34.7,30.03,South,172,0.0,0.0,70,0.00,,,0.00,0,WeatherCatV1.11B39,2013-05-03 02:17:00,
2013-05-02 22:22:00,43.7,34.2,30.03,South,172,0.0,0.0,69,0.00,,,0.00,0,WeatherCatV1.11B39,2013-05-03 02:22:00,
2013-05-02 22:27:00,43.5,34.0,30.03,South,172,0.0,0.0,69,0.00,,,0.00,0,WeatherCatV1.11B39,2013-05-03 02:27:00,
2013-05-02 22:32:00,43.3,34.2,30.04,South,172,0.0,0.0,70,0.00,,,0.00,0,WeatherCatV1.11B39,2013-05-03 02:32:00,
2013-05-02 22:37:00,43.2,35.8,30.04,South,172,0.0,0.0,75,0.00,,,0.00,0,WeatherCatV1.11B39,2013-05-03 02:37:00,
2013-05-02 22:42:00,43.1,36.4,30.04,South,172,0.0,0.0,77,0.00,,,0.00,0,WeatherCatV1.11B39,2013-05-03 02:42:00,
2013-05-02 22:47:00,42.9,35.2,30.04,South,172,0.0,0.0,74,0.00,,,0.00,0,WeatherCatV1.11B39,2013-05-03 02:47:00,
2013-05-02 22:52:00,42.8,34.8,30.04,South,172,0.0,0.0,73,0.00,,,0.00,0,WeatherCatV1.11B39,2013-05-03 02:52:00,
2013-05-02 22:57:00,42.6,34.6,30.05,South,172,0.0,0.0,73,0.00,,,0.00,0,WeatherCatV1.11B39,2013-05-03 02:57:00,
2013-05-02 23:02:00,42.4,34.7,30.05,South,172,0.0,0.0,74,0.00,,,0.00,0,WeatherCatV1.11B39,2013-05-03 03:02:00,
2013-05-02 23:07:00,42.1,34.4,30.04,South,172,0.0,0.0,74,0.00,,,0.00,0,WeatherCatV1.11B39,2013-05-03 03:07:00,
2013-05-02 23:12:00,41.8,34.1,30.05,South,172,0.0,0.0,74,0.00,,,0.00,0,WeatherCatV1.11B39,2013-05-03 03:12:00,
2013-05-02 23:17:00,41.5,34.2,30.05,South,172,0.0,0.0,75,0.00,,,0.00,0,WeatherCatV1.11B39,2013-05-03 03:17:00,
2013-05-02 23:22:00,41.2,34.2,30.05,South,172,0.0,0.0,76,0.00,,,0.00,0,WeatherCatV1.11B39,2013-05-03 03:22:00,
2013-05-02 23:27:00,40.9,33.9,30.05,South,172,0.0,0.0,76,0.00,,,0.00,0,WeatherCatV1.11B39,2013-05-03 03:27:00,
2013-05-02 23:32:00,40.6,34.0,30.05,South,172,0.0,0.0,77,0.00,,,0.00,0,WeatherCatV1.11B39,2013-05-03 03:32:00,
2013-05-02 23:37:00,40.4,34.1,30.05,South,172,0.0,0.0,78,0.00,,,0.00,0,WeatherCatV1.11B39,2013-05-03 03:37:00,
2013-05-02 23:42:00,40.2,33.9,30.05,South,172,0.0,0.0,78,0.00,,,0.00,0,WeatherCatV1.11B39,2013-05-03 03:42:00,
2013-05-02 23:47:00,40.0,33.7,30.05,South,172,0.0,0.0,78,0.00,,,0.00,0,WeatherCatV1.11B39,2013-05-03 03:47:00,
2013-05-02 23:52:00,39.8,33.8,30.05,South,172,0.0,0.0,79,0.00,,,0.00,0,WeatherCatV1.11B39,2013-05-03 03:52:00,
2013-05-02 23:57:00,39.6,33.6,30.06,South,172,0.0,0.0,79,0.00,,,0.00,0,WeatherCatV1.11B39,2013-05-03 03:57:00,